Snowfall_Accumulation
0.0 0.0 0.0 0.0 0.0 0.0 0.0 0.0 0.0 0.0 0.0 0.0 0.0 0.0 0.0 0.0 0.0 0.0 0.0 0.0 0.0 0.0 0.0 0.0 0.0 0.0 0.0 0.0 0.0 0.0 0.0 0.0 0.0 0.0 0.0 0.0 0.0 0.0 0.0 0.0 0.0 0.0 0.0
0.0 0.0 0.0 0.0 0.0 0.0 0.0 0.0 0.0 0.0 0.0 0.0 0.0 0.0 0.0 0.0 0.0 0.0 0.0 0.0 0.0 0.0 0.0 0.0 0.0 0.0 0.0 0.0 0.0 0.0 0.0 0.0 0.0 0.0 0.0 0.0 0.0 0.0 0.0 0.0 0.0 0.0 0.0
0.0 0.0 0.0 0.0 0.0 0.0 0.0 0.0 0.0 0.0 0.0 0.0 0.0 0.0 0.0 0.0 0.0 0.0 0.0 0.0 0.0 0.0 0.0 0.0 0.0 0.0 0.0 0.0 0.0 0.0 0.0 0.0 0.0 0.0 0.0 0.0 0.0 0.0 0.0 0.0 0.0 0.0 0.0
0.0 0.0 0.0 0.0 0.0 0.0 0.0 0.0 0.0 0.0 0.0 0.0 0.0 0.0 0.0 0.0 0.0 0.0 0.0 0.0 0.0 0.0 0.0 0.0 0.0 0.0 0.0 0.0 0.0 0.0 0.0 0.0 0.0 0.0 0.0 0.0 0.0 0.0 0.0 0.0 0.0 0.0 0.0
0.0 0.0 0.0 0.0 0.0 0.0 0.0 0.0 0.0 0.0 0.0 0.0 0.0 0.0 0.0 0.0 0.0 0.1 0.0 0.0 0.0 0.0 0.0 0.0 0.0 nan nan nan 0.0 0.0 0.0 0.0 0.0 0.0 0.0 0.0 0.0 0.0 0.0 0.0 0.0 0.0 0.0
0.0 0.0 0.0 0.0 0.0 0.0 0.0 0.0 0.0 0.0 0.0 0.0 0.0 0.1 0.1 0.0 nan nan 0.1 0.1 0.0 0.0 0.1 0.0 0.0 0.0 0.0 nan nan nan nan 0.0 0.0 0.0 0.0 0.0 0.0 0.0 0.0 0.0 0.0 0.0 0.0
0.0 0.0 0.0 0.0 0.0 0.0 0.0 0.0 0.0 0.0 0.0 0.0 0.0 0.0 0.1 0.1 nan nan nan 0.1 0.2 0.1 0.1 0.1 0.0 0.0 nan 0.0 nan nan nan nan 0.0 0.0 0.0 0.0 0.0 0.0 0.0 0.0 0.0 0.0 0.0
0.0 0.0 0.0 0.0 0.0 0.0 0.0 0.0 0.0 0.0 0.0 0.0 0.0 0.0 0.0 0.0 nan nan nan 0.1 0.1 0.1 0.1 0.2 0.2 0.1 0.0 0.0 0.0 0.0 0.0 0.0 0.0 0.0 0.0 0.0 0.0 0.0 0.0 0.0 0.0 0.0 0.1
0.0 0.0 0.0 0.0 0.0 0.0 0.0 0.0 0.0 0.0 0.0 0.0 0.0 0.0 0.0 0.0 nan nan 0.1 0.1 0.1 0.2 0.1 0.1 0.2 0.3 nan nan 0.0 0.0 0.1 0.1 nan nan nan nan nan nan nan 0.0 0.1 0.1 0.3
0.0 0.0 0.0 0.0 0.0 0.0 0.0 0.0 0.0 0.0 0.0 0.2 0.0 0.0 nan 0.1 nan nan nan 0.3 0.3 0.6 0.2 0.1 nan 0.4 nan nan 0.0 0.0 0.1 0.4 0.2 0.0 0.0 0.0 nan nan nan 0.0 0.0 0.0 0.2
0.0 0.0 0.0 0.0 0.0 0.0 0.0 0.0 0.0 0.0 0.0 0.0 0.0 0.0 0.1 0.1 0.0 nan nan 0.5 1.3 0.9 0.9 1.1 0.7 nan nan nan nan 0.3 1.0 0.3 0.7 0.6 0.2 0.2 0.1 0.0 0.1 0.0 0.0 0.0 0.1
0.0 0.0 0.0 0.0 0.0 0.0 0.0 0.0 0.0 0.0 0.0 0.0 0.0 0.3 0.4 0.1 nan nan nan nan nan 1.0 1.2 1.4 1.1 nan nan nan 0.5 nan nan 0.1 0.8 0.9 1.4 1.8 1.2 0.9 0.3 0.2 0.0 0.0 0.2
0.0 0.0 0.0 0.0 0.0 0.0 0.0 0.0 0.4 0.0 0.4 0.1 0.5 0.5 0.5 0.4 0.3 nan nan nan nan 0.9 0.9 0.9 nan nan nan 0.0 nan nan 0.2 1.5 2.7 4.5 4.5 4.1 3.3 1.4 0.6 1.1 0.3 0.1 0.2
0.0 0.0 0.0 0.0 0.0 0.0 0.3 0.3 0.3 0.4 0.7 0.5 0.6 0.8 0.6 0.5 0.5 0.4 0.4 0.3 nan 0.5 0.1 0.7 0.0 0.7 0.0 0.3 0.8 1.2 1.2 1.8 3.0 3.7 3.8 3.2 2.4 2.1 1.8 1.3 1.7 1.4 1.5
0.0 0.0 0.0 0.1 0.0 0.1 0.1 0.3 0.3 0.1 0.9 1.1 1.1 0.9 2.4 3.3 2.2 0.5 1.0 0.9 0.8 0.5 0.6 1.3 2.1 2.3 2.5 1.8 1.7 1.9 1.5 1.6 2.4 3.0 3.2 3.0 2.5 1.6 1.7 0.9 1.1 1.1 1.7
0.0 0.0 0.1 0.2 0.2 0.2 0.3 0.7 nan nan nan nan nan 0.4 1.0 nan nan nan nan nan nan nan 1.0 1.8 3.9 3.9 3.0 2.2 2.2 1.9 1.3 1.1 1.3 1.3 1.6 1.7 2.1 1.9 1.5 1.0 0.7 1.0 1.4
0.0 0.0 0.1 0.1 0.3 0.4 0.6 0.8 1.7 1.0 nan nan nan nan nan nan nan nan nan nan nan nan 1.6 1.6 2.9 3.3 2.1 1.6 1.3 1.2 2.2 1.6 0.4 0.9 1.2 1.6 1.6 1.5 1.7 1.5 1.3 1.0 1.4
0.0 0.0 0.3 0.3 0.5 0.6 0.9 1.5 1.8 3.1 6.1 5.8 nan nan nan nan nan nan nan nan 1.7 nan 0.6 1.3 1.6 1.3 1.2 1.4 1.1 1.4 1.1 1.2 1.3 1.1 1.2 1.6 1.9 1.7 1.7 1.7 1.5 2.1 1.7
0.4 0.8 0.6 0.7 0.8 1.1 1.3 1.7 2.0 2.4 3.0 3.8 2.3 1.0 0.3 nan nan nan nan 0.7 1.5 1.0 0.7 0.7 0.9 0.7 0.9 0.9 1.3 1.5 2.3 2.4 2.6 3.5 1.9 2.6 4.7 1.6 1.8 1.4 1.2 0.9 1.3
0.8 0.0 0.6 0.9 1.1 1.2 1.3 1.7 2.1 2.2 2.2 2.0 2.0 2.2 1.2 0.7 3.2 5.3 1.9 3.0 2.0 1.0 0.9 0.8 0.8 0.5 0.7 0.8 1.3 2.7 2.5 3.1 2.4 2.1 3.4 5.1 4.5 1.9 2.3 1.9 2.0 2.1 1.0
1.0 1.0 0.0 0.7 0.9 0.9 1.1 1.6 1.5 2.1 2.6 2.1 2.9 2.5 0.1 0.9 2.4 1.8 1.4 1.9 1.5 1.2 1.6 0.8 1.1 0.9 0.7 0.9 0.8 1.3 0.9 4.0 1.6 2.0 1.8 1.9 11.0 3.6 1.6 1.6 2.0 1.7 1.3
0.7 0.7 0.6 0.8 0.7 1.3 1.1 1.0 1.4 1.7 1.7 2.2 2.5 2.1 1.8 2.1 1.6 1.8 1.6 2.6 3.9 1.1 1.0 1.1 1.2 1.0 1.0 1.4 1.6 3.8 3.1 4.7 3.5 2.5 2.1 2.3 2.1 2.2 2.0 2.0 2.5 2.4 1.7
0.5 0.6 0.5 0.5 0.6 2.2 1.1 1.2 1.6 2.1 2.2 2.8 2.3 3.4 3.9 3.8 3.5 2.4 3.1 4.4 1.9 2.2 1.4 1.2 2.5 1.8 1.0 1.7 1.6 1.5 3.3 3.1 2.7 2.9 4.0 4.0 2.4 2.5 3.3 2.6 2.4 3.1 3.1
0.5 0.7 0.8 1.2 1.4 1.0 2.0 3.5 2.0 4.4 2.2 3.8 7.1 5.2 4.6 4.7 9.0 7.4 7.2 8.1 5.2 6.4 5.9 6.1 2.6 2.1 1.9 4.8 2.7 1.9 1.6 2.9 2.2 2.6 2.2 3.9 3.3 2.6 3.0 2.6 2.4 2.5 3.4
0.6 2.1 2.4 1.6 2.4 5.2 6.4 3.3 4.4 5.6 5.7 7.1 9.3 6.9 2.6 5.3 4.3 10.0 7.3 5.6 5.1 8.1 4.5 5.7 4.8 3.3 3.5 3.6 3.3 1.5 1.9 2.7 2.7 2.8 2.8 1.6 2.7 2.5 3.0 2.7 3.3 2.5 2.7
0.5 0.7 1.3 1.7 2.7 4.9 6.0 9.2 9.1 7.5 8.1 8.5 8.6 9.5 6.7 5.2 4.4 9.3 6.9 6.5 6.2 5.8 5.2 5.5 4.6 4.2 4.1 3.2 2.1 4.7 4.7 3.9 4.8 3.2 4.2 2.5 4.0 4.0 3.6 2.6 2.2 3.5 2.2
Water_Equivalent
0.00 0.00 0.00 0.00 0.00 0.00 0.00 0.00 0.00 0.00 0.00 0.00 0.00 0.00 0.00 0.00 0.00 0.00 0.00 0.00 0.00 0.00 0.00 0.00 0.00 0.00 0.00 0.00 0.00 0.00 0.00 0.00 0.00 0.00 0.00 0.00 0.00 0.00 0.00 0.00 0.00 0.00 0.00
0.00 0.00 0.00 0.00 0.00 0.00 0.00 0.00 0.00 0.00 0.00 0.00 0.00 0.00 0.00 0.00 0.00 0.00 0.00 0.00 0.00 0.00 0.00 0.00 0.00 0.00 0.00 0.00 0.00 0.00 0.00 0.00 0.00 0.00 0.00 0.00 0.00 0.00 0.00 0.00 0.00 0.00 0.00
0.00 0.00 0.00 0.00 0.00 0.00 0.00 0.00 0.00 0.00 0.00 0.00 0.00 0.00 0.00 0.00 0.00 0.00 0.00 0.00 0.00 0.00 0.00 0.00 0.00 0.00 0.00 0.00 0.00 0.00 0.00 0.00 0.00 0.00 0.00 0.00 0.00 0.00 0.00 0.00 0.00 0.00 0.00
0.00 0.00 0.00 0.00 0.00 0.00 0.00 0.00 0.00 0.00 0.00 0.00 0.00 0.00 0.00 0.00 0.00 0.00 0.00 0.00 0.00 0.00 0.00 0.00 0.00 0.00 0.00 0.00 0.00 0.00 0.00 0.00 0.00 0.00 0.00 0.00 0.00 0.00 0.00 0.00 0.00 0.00 0.00
0.00 0.00 0.00 0.00 0.00 0.00 0.00 0.00 0.00 0.00 0.00 0.00 0.02 0.02 0.01 0.02 0.01 0.01 0.00 0.00 0.00 0.00 0.00 0.00 0.00 nan nan nan 0.00 0.00 0.00 0.00 0.00 0.00 0.00 0.00 0.00 0.00 0.00 0.00 0.00 0.00 0.00
0.00 0.00 0.00 0.00 0.00 0.00 0.00 0.00 0.00 0.00 0.01 0.00 0.01 0.02 0.04 0.01 nan nan 0.02 0.02 0.00 0.01 0.02 0.00 0.00 0.00 0.00 nan nan nan nan 0.00 0.00 0.00 0.00 0.00 0.00 0.00 0.00 0.00 0.00 0.00 0.01
0.00 0.00 0.00 0.00 0.00 0.00 0.00 0.00 0.01 0.01 0.00 0.01 0.01 0.00 0.02 0.02 nan nan nan 0.05 0.05 0.03 0.03 0.03 0.01 0.00 nan 0.00 nan nan nan nan 0.00 0.00 0.00 0.00 0.00 0.00 0.00 0.00 0.00 0.00 0.00
0.00 0.00 0.00 0.00 0.00 0.00 0.00 0.00 0.00 0.00 0.01 0.01 0.01 0.01 0.01 0.00 nan nan nan 0.03 0.04 0.06 0.03 0.05 0.04 0.03 0.00 0.00 0.00 0.01 0.01 0.00 0.00 0.00 0.00 0.00 0.00 0.00 0.00 0.00 0.00 0.00 0.02
0.00 0.00 0.00 0.00 0.00 0.00 0.00 0.00 0.00 0.00 0.00 0.00 0.01 0.01 0.01 0.01 nan nan 0.02 0.02 0.04 0.08 0.03 0.04 0.05 0.06 nan nan 0.00 0.01 0.02 0.01 nan nan nan nan nan nan nan 0.00 0.04 0.06 0.13
0.00 0.00 0.00 0.00 0.00 0.00 0.00 0.00 0.00 0.00 0.00 0.10 0.01 0.01 nan 0.01 nan nan nan 0.10 0.07 0.23 0.06 0.05 nan 0.10 nan nan 0.01 0.00 0.01 0.06 0.03 0.01 0.00 0.00 nan nan nan 0.00 0.00 0.00 0.07
0.00 0.00 0.00 0.00 0.00 0.00 0.00 0.00 0.00 0.00 0.00 0.01 0.01 0.01 0.02 0.02 0.00 nan nan 0.13 0.32 0.29 0.29 0.38 0.26 nan nan nan nan 0.05 0.15 0.06 0.24 0.15 0.09 0.10 0.03 0.02 0.03 0.01 0.00 0.00 0.05
0.00 0.00 0.00 0.00 0.00 0.00 0.00 0.00 0.01 0.01 0.01 0.02 0.01 0.11 0.18 0.01 nan nan nan nan nan 0.26 0.33 0.46 0.41 nan nan nan 0.17 nan nan 0.06 0.31 0.36 0.47 0.66 0.49 0.34 0.10 0.08 0.00 0.02 0.07
0.00 0.00 0.00 0.00 0.00 0.00 0.00 0.01 0.16 0.01 0.13 0.03 0.16 0.20 0.19 0.15 0.13 nan nan nan nan 0.33 0.33 0.37 nan nan nan 0.00 nan nan 0.08 0.61 1.05 1.78 1.73 1.51 1.13 0.57 0.25 0.45 0.11 0.06 0.08
0.00 0.00 0.00 0.00 0.01 0.01 0.12 0.12 0.12 0.15 0.18 0.15 0.19 0.24 0.20 0.19 0.18 0.16 0.16 0.13 nan 0.20 0.04 0.26 0.01 0.26 0.00 0.12 0.33 0.48 0.47 0.67 1.02 1.31 1.38 1.24 0.95 0.83 0.73 0.51 0.68 0.54 0.61
0.00 0.00 0.00 0.02 0.01 0.02 0.04 0.10 0.11 0.03 0.19 0.25 0.27 0.25 0.65 0.94 0.64 0.20 0.29 0.31 0.32 0.19 0.23 0.51 0.75 0.83 0.89 0.65 0.62 0.68 0.55 0.59 0.84 1.08 1.18 1.09 0.93 0.65 0.64 0.37 0.43 0.43 0.59
0.00 0.00 0.03 0.07 0.10 0.09 0.12 0.25 nan nan nan nan nan 0.15 0.40 nan nan nan nan nan nan nan 0.37 0.65 1.28 1.26 0.87 0.64 0.67 0.55 0.40 0.34 0.37 0.39 0.50 0.49 0.59 0.61 0.48 0.38 0.28 0.35 0.45
0.00 0.00 0.04 0.05 0.10 0.13 0.21 0.25 0.42 0.35 nan nan nan nan nan nan nan nan nan nan nan nan 0.55 0.51 0.90 1.00 0.57 0.36 0.30 0.28 0.49 0.38 0.07 0.26 0.32 0.40 0.39 0.40 0.54 0.48 0.43 0.34 0.49
0.00 0.00 0.11 0.13 0.17 0.22 0.32 0.56 0.63 0.95 1.62 1.68 nan nan nan nan nan nan nan nan 0.55 nan 0.20 0.33 0.46 0.37 0.27 0.28 0.24 0.27 0.26 0.32 0.33 0.27 0.33 0.45 0.54 0.42 0.46 0.42 0.40 0.59 0.48
0.15 0.29 0.23 0.29 0.33 0.43 0.49 0.61 0.71 0.76 0.92 0.99 0.70 0.31 0.13 nan nan nan nan 0.25 0.42 0.28 0.20 0.19 0.26 0.21 0.24 0.21 0.35 0.42 0.61 0.69 0.75 1.13 0.56 0.81 1.64 0.42 0.49 0.36 0.33 0.25 0.36
0.33 0.01 0.23 0.34 0.41 0.44 0.44 0.54 0.63 0.65 0.62 0.55 0.50 0.52 0.35 0.23 1.00 1.81 0.67 1.05 0.64 0.27 0.25 0.20 0.21 0.17 0.20 0.22 0.43 0.96 0.92 1.10 0.71 0.60 1.08 1.81 1.57 0.53 0.57 0.47 0.53 0.55 0.26
0.40 0.37 0.00 0.23 0.28 0.28 0.35 0.47 0.44 0.62 0.71 0.54 0.75 0.82 0.02 0.27 0.61 0.49 0.40 0.54 0.39 0.30 0.44 0.21 0.27 0.27 0.24 0.29 0.23 0.45 0.26 1.49 0.47 0.57 0.47 0.53 4.17 0.99 0.44 0.44 0.56 0.45 0.34
0.23 0.22 0.18 0.23 0.22 0.37 0.32 0.29 0.41 0.47 0.48 0.55 0.62 0.55 0.59 0.65 0.45 0.47 0.45 0.76 1.24 0.31 0.24 0.30 0.28 0.25 0.24 0.30 0.38 1.30 0.99 1.58 1.17 0.79 0.64 0.66 0.58 0.61 0.54 0.57 0.70 0.70 0.49
0.16 0.21 0.15 0.15 0.18 0.72 0.33 0.31 0.39 0.55 0.57 0.75 0.57 0.76 0.94 1.04 0.97 0.61 0.80 1.31 0.55 0.62 0.43 0.34 0.73 0.50 0.33 0.51 0.46 0.39 0.81 0.75 0.69 0.81 1.12 1.16 0.66 0.73 1.02 0.74 0.63 0.83 0.81
0.19 0.26 0.25 0.36 0.43 0.28 0.61 1.06 0.56 1.42 0.56 0.98 2.00 1.46 1.23 1.30 2.67 2.05 2.13 2.53 1.49 2.00 1.85 1.87 0.68 0.51 0.48 1.54 0.82 0.56 0.41 0.79 0.60 0.69 0.62 1.07 0.88 0.80 0.90 0.76 0.69 0.67 0.91
0.24 0.75 0.88 0.50 0.67 1.61 2.04 1.01 1.30 1.65 1.61 2.04 2.65 1.91 0.67 1.48 1.15 3.04 2.18 1.55 1.36 2.31 1.18 1.58 1.28 0.84 0.90 0.84 0.75 0.34 0.52 0.91 0.80 0.92 0.78 0.41 0.71 0.68 0.81 0.73 0.94 0.73 0.74
0.20 0.25 0.42 0.54 0.85 1.61 1.84 2.93 2.89 2.34 2.42 2.61 2.61 2.76 1.82 1.30 1.12 2.55 1.79 1.65 1.45 1.38 1.25 1.31 1.13 0.96 0.92 0.82 0.48 1.53 1.54 1.28 1.27 1.05 1.15 0.68 1.07 1.07 0.98 0.69 0.55 0.96 0.58
SL_Ratio
nan nan nan nan nan nan nan nan nan nan nan nan nan nan nan 6.0 nan nan nan nan nan nan nan nan nan nan nan nan nan nan nan nan nan nan nan nan nan nan nan nan nan nan nan
nan nan nan nan nan nan nan nan nan nan nan nan nan nan nan 6.0 nan 5.0 5.7 nan 7.5 0.0 nan nan nan nan nan nan nan nan nan nan nan nan nan nan nan nan nan nan nan nan nan
nan nan nan nan nan nan nan nan nan nan 2.3 0.0 nan nan nan 5.5 6.0 nan nan 10.0 6.0 6.0 nan nan nan nan nan nan nan nan nan nan nan nan nan nan nan nan nan nan nan nan nan
nan nan nan nan nan nan nan nan nan nan 2.3 2.1 5.0 nan nan 5.0 6.0 nan nan 10.0 nan nan nan nan nan nan nan nan nan nan nan nan nan nan nan nan nan nan nan nan nan nan nan
nan nan nan nan nan nan nan nan nan nan nan 2.5 2.5 2.7 2.6 2.9 5.5 3.9 nan nan 5.6 0.0 nan nan nan nan nan nan 10.0 nan nan nan nan nan nan nan nan nan nan nan nan nan nan
nan nan nan nan nan nan nan nan nan 0.0 2.8 2.7 2.6 2.8 2.6 3.3 nan nan 2.8 3.5 4.7 5.4 5.1 nan nan nan nan nan nan nan nan nan nan nan nan nan nan nan nan nan nan nan 2.4
nan nan nan nan nan nan nan nan 3.7 4.0 5.0 3.8 2.9 3.3 3.3 3.5 nan nan nan 2.5 3.0 4.1 4.3 4.7 4.4 nan nan nan nan nan nan nan nan nan nan nan nan nan nan nan nan nan nan
nan nan nan nan nan nan nan nan nan 3.8 3.4 3.8 3.7 4.1 3.5 3.6 nan nan nan 2.5 2.5 2.5 3.6 4.4 4.4 4.4 4.6 nan nan 5.9 5.8 5.0 nan nan nan nan nan nan nan nan nan nan 2.5
nan nan nan nan nan nan nan nan nan nan 2.5 4.3 3.2 3.3 4.4 4.6 nan nan 3.9 3.0 2.8 2.7 2.5 2.8 3.8 4.5 nan nan nan 6.2 5.8 6.0 nan nan nan nan nan nan nan nan 2.5 2.5 2.5
nan nan nan nan nan nan nan nan nan nan nan 2.5 2.9 2.7 nan 4.4 nan nan nan 3.0 3.8 2.8 2.8 2.7 nan 3.7 nan nan 5.8 6.4 6.1 6.4 5.7 3.3 nan nan nan nan nan nan nan nan 2.5
nan nan nan nan nan nan nan nan 0.0 3.3 2.5 2.8 2.8 2.8 2.7 3.9 4.2 nan nan 4.1 4.0 3.1 3.0 3.0 2.8 nan nan nan nan 5.9 7.1 5.3 2.9 3.7 2.6 2.5 2.5 2.5 2.6 2.5 nan nan 2.5
nan nan nan nan nan nan nan 2.7 2.9 3.0 3.1 3.0 2.9 2.5 2.5 3.9 nan nan nan nan nan 3.7 3.7 3.0 2.8 nan nan nan 2.7 nan nan 2.5 2.5 2.6 2.9 2.7 2.5 2.5 2.6 2.6 nan 2.4 2.5
nan nan nan nan nan nan 3.1 3.2 2.6 3.9 2.9 3.4 2.8 2.8 2.7 2.6 2.5 nan nan nan nan 2.7 2.7 2.5 nan nan nan nan nan nan 3.1 2.5 2.5 2.5 2.6 2.7 2.9 2.5 2.5 2.5 2.5 2.5 2.5
nan nan nan nan 2.8 2.4 2.5 2.5 2.5 2.8 3.6 3.1 3.2 3.3 2.9 2.8 2.7 2.7 2.8 2.5 nan 2.5 2.5 2.5 3.2 2.6 5.0 2.5 2.6 2.5 2.6 2.7 2.9 2.8 2.8 2.6 2.5 2.5 2.5 2.5 2.5 2.5 2.5
nan nan nan 2.5 2.6 2.5 2.5 2.5 2.6 2.6 4.6 4.4 4.1 3.5 3.6 3.5 3.4 2.6 3.2 2.9 2.6 2.5 2.5 2.5 2.8 2.8 2.9 2.8 2.7 2.7 2.7 2.7 2.9 2.8 2.7 2.8 2.7 2.5 2.6 2.6 2.6 2.5 2.8
nan 3.3 2.5 2.5 2.5 2.5 2.7 2.6 nan nan nan nan nan 2.7 2.5 nan nan nan nan nan nan nan 2.6 2.8 3.0 3.1 3.4 3.4 3.4 3.5 3.2 3.4 3.6 3.4 3.2 3.5 3.6 3.2 3.0 2.7 2.5 2.8 3.2
nan nan 2.5 2.5 2.6 2.7 2.7 3.1 3.9 2.7 nan nan nan nan nan nan nan nan nan nan nan nan 2.9 3.1 3.2 3.3 3.7 4.3 4.3 4.2 4.6 4.1 5.5 3.6 3.8 4.0 4.1 3.8 3.2 3.2 3.0 2.9 2.9
3.0 nan 2.5 2.6 2.7 2.7 2.7 2.8 2.8 3.3 3.8 3.4 nan nan nan nan nan nan nan nan 3.1 nan 2.9 3.8 3.5 3.6 4.4 4.9 4.9 5.1 4.4 3.6 3.9 4.0 3.7 3.5 3.5 4.0 3.7 4.1 3.8 3.6 3.4
2.7 2.7 2.5 2.5 2.5 2.5 2.6 2.7 2.9 3.1 3.3 3.8 3.2 3.3 2.8 nan nan nan nan 2.9 3.5 3.5 3.3 3.5 3.5 3.5 3.8 4.4 3.7 3.5 3.7 3.5 3.4 3.1 3.5 3.2 2.9 3.9 3.8 3.8 3.7 3.5 3.5
2.5 2.7 2.7 2.7 2.7 2.8 2.9 3.2 3.3 3.4 3.5 3.7 4.0 4.2 3.3 3.0 3.2 3.0 2.9 2.9 3.2 3.5 3.6 3.8 3.9 3.3 3.2 3.6 3.1 2.8 2.7 2.8 3.4 3.4 3.1 2.8 2.9 3.6 4.0 4.1 3.7 3.7 3.9
2.6 2.7 nan 3.0 3.1 3.2 3.2 3.4 3.4 3.4 3.7 3.8 3.9 3.1 2.9 3.5 3.9 3.6 3.5 3.5 4.0 4.0 3.8 4.0 4.0 3.2 3.1 3.1 3.4 2.9 3.4 2.7 3.4 3.6 3.8 3.6 2.6 3.6 3.6 3.6 3.6 3.8 3.9
2.9 3.0 3.0 3.4 3.2 3.6 3.6 3.4 3.5 3.5 3.6 4.0 3.9 3.8 3.0 3.3 3.6 3.8 3.7 3.4 3.2 3.6 4.2 3.8 4.1 3.9 4.0 4.5 4.3 2.9 3.1 3.0 3.0 3.2 3.3 3.5 3.6 3.5 3.6 3.5 3.5 3.4 3.5
2.9 2.9 3.0 3.2 3.4 3.1 3.5 3.8 3.9 3.7 3.8 3.7 4.0 4.5 4.2 3.7 3.6 3.9 3.9 3.3 3.5 3.5 3.3 3.5 3.4 3.6 3.1 3.3 3.5 3.8 4.0 4.1 4.0 3.6 3.6 3.4 3.7 3.4 3.2 3.5 3.7 3.8 3.8
2.6 2.8 3.3 3.2 3.2 3.6 3.3 3.3 3.6 3.1 3.9 3.8 3.5 3.6 3.7 3.6 3.3 3.6 3.4 3.2 3.5 3.2 3.2 3.2 3.8 4.0 3.9 3.1 3.3 3.4 3.8 3.7 3.7 3.8 3.6 3.6 3.7 3.3 3.4 3.5 3.5 3.7 3.7
2.7 2.8 2.8 3.2 3.5 3.2 3.1 3.3 3.4 3.4 3.6 3.5 3.5 3.6 3.9 3.6 3.8 3.3 3.4 3.6 3.7 3.5 3.8 3.6 3.8 3.9 3.9 4.3 4.4 4.4 3.7 3.0 3.4 3.0 3.6 3.9 3.7 3.7 3.7 3.7 3.5 3.4 3.6
2.6 2.8 3.1 3.1 3.3 3.0 3.2 3.1 3.1 3.2 3.3 3.3 3.3 3.4 3.7 4.0 3.9 3.6 3.8 3.9 4.3 4.2 4.2 4.2 4.1 4.4 4.5 3.9 4.4 3.1 3.0 3.0 3.8 3.0 3.6 3.7 3.8 3.8 3.6 3.7 4.0 3.7 3.8